Terminal Aerodrome Forecast
Issued by NWS Milwaukee/Sullivan, WI

Home | Current Version | Previous Version | Text Only | Print | Product List | Glossary On
Versions: 1 2 3 4 5 6 7 8 9 10 11 12 13 14 15 16 17 18 19 20 21 22 23 24 25 26 27 28 29 30 31 32 33 34 35 36 37
000
FTUS43 KMKX 190905 AAA
TAFMSN
TAF AMD
KMSN 190905Z 1909/2006 09009KT P6SM SCT080 BKN200 WS020/12040KT
      TEMPO 1909/1912 BKN080
     FM191200 12010G18KT P6SM BKN110
     FM192200 10011KT 3SM -SHRA OVC030
     FM200200 06007KT 3SM -SHRA OVC010
     FM200500 36006KT 3SM -SHRA OVC008=

USA.gov is the U.S. government's official web portal to all federal, state and local government web resources and services.